Tarboro, NC

2:43 PM EDT on July 23, 2017 (GMT -0400)
Tarboro-edgecombe

Weather History for KETC - July, 2012

Change the Weather History Date:

Monday, July 23, 2012

  Actual Average Record
Temperature  
Mean Temperature 82 °F -  
Max Temperature 99 °F 90 °F 102 °F (1952)
Min Temperature 72 °F 68 °F 55 °F (1974)
Cooling Degree Days 17    
Growing Degree Days 32 (Base 50)    
Moisture  
Dew Point 73 °F    
Average Humidity 79    
Maximum Humidity 94    
Minimum Humidity 54    
Precipitation  
Precipitation 0.03 in - - ()
Sea Level Pressure  
Sea Level Pressure 30.08 in    
Wind  
Wind Speed 3 mph (SW)    
Max Wind Speed 13 mph    
Max Gust Speed 18 mph    
Visibility 9 miles    
Events Rain    
Averages and records for this station are not official NWS values.
T = Trace of Precipitation, MM = Missing Value Source: NWS Daily Summary

Daily Weather History Graph

Daily Weather History Graph

Search for Another Location

Airport or City:

Trip Planner

Search our weather history database for the weather conditions in past years. The results will help you decide how hot, cold, wet, or windy it might be!

Date:

Astronomy

Jul. 23, 2012 Rise Set
Actual Time 6:11 AM EDT 8:21 PM EDT
Civil Twilight 5:42 AM EDT 8:50 PM EDT
Nautical Twilight 5:06 AM EDT 9:25 PM EDT
Astronomical Twilight 4:28 AM EDT 10:03 PM EDT
Moon 10:48 AM EDT 10:48 PM EDT
Length of Visible Light 15h 08m
Length of Day
14h 10m
Waxing Crescent, 21% of the Moon is Illuminated
Jul 23
Waxing Crescent
Jul 26
First Quarter
Aug 1
Full
Aug 9
Last Quarter
Aug 17
New

Hourly Weather History & Observations

Time (EDT) Temp. Heat Index Dew Point Humidity Pressure Visibility Wind Dir Wind Speed Gust Speed Precip Events Conditions
12:35 AM 75.2 °F - 73.4 °F 94% 30.16 in 7.0 mi Calm Calm - N/A   Clear
12:55 AM 75.4 °F - 73.2 °F 93% 30.16 in 10.0 mi Calm Calm - N/A   Clear
1:15 AM 75.4 °F - 72.5 °F 91% 30.15 in 10.0 mi Calm Calm - N/A   Clear
1:35 AM 75.4 °F - 72.1 °F 90% 30.15 in 10.0 mi Calm Calm - N/A   Clear
1:55 AM 75.0 °F - 71.8 °F 90% 30.15 in 10.0 mi Calm Calm - N/A   Scattered Clouds
2:15 AM 74.5 °F - 71.8 °F 91% 30.15 in 7.0 mi Calm Calm - N/A   Mostly Cloudy
2:35 AM 74.5 °F - 72.1 °F 92% 30.14 in 10.0 mi Calm Calm - N/A   Mostly Cloudy
2:55 AM 74.3 °F - 71.8 °F 92% 30.13 in 10.0 mi Calm Calm - N/A   Mostly Cloudy
3:15 AM 74.3 °F - 71.8 °F 92% 30.14 in 5.0 mi Calm Calm - 0.01 in Rain Light Rain
3:35 AM 74.3 °F - 71.8 °F 92% 30.13 in 10.0 mi Calm Calm - 0.02 in   Overcast
3:55 AM 74.3 °F - 71.8 °F 92% 30.13 in 7.0 mi Calm Calm - 0.02 in   Scattered Clouds
4:15 AM 73.8 °F - 71.6 °F 93% 30.13 in 7.0 mi Calm Calm - N/A   Clear
4:35 AM 73.6 °F - 71.6 °F 93% 30.14 in 7.0 mi Calm Calm - N/A   Scattered Clouds
4:55 AM 73.6 °F - 71.4 °F 93% 30.14 in 7.0 mi Calm Calm - N/A   Scattered Clouds
5:15 AM 73.4 °F - 71.1 °F 92% 30.13 in 7.0 mi Calm Calm - N/A   Clear
5:35 AM 73.2 °F - 70.9 °F 92% 30.13 in 7.0 mi Calm Calm - N/A   Clear
5:55 AM 72.7 °F - 70.7 °F 93% 30.14 in 7.0 mi Calm Calm - N/A   Clear
6:15 AM 72.7 °F - 70.7 °F 93% 30.14 in 5.0 mi Calm Calm - N/A   Clear
6:35 AM 73.2 °F - 71.2 °F 93% 30.14 in 7.0 mi Calm Calm - N/A   Clear
6:55 AM 73.9 °F - 72.0 °F 93% 30.14 in 7.0 mi SW 4.6 mph - N/A   Clear
7:35 AM 76.5 °F - 73.4 °F 90% 30.15 in 10.0 mi SW 6.9 mph - N/A   Clear
7:55 AM 77.5 °F - 73.8 °F 88% 30.14 in 10.0 mi WSW 8.1 mph - N/A   Clear
8:15 AM 78.8 °F - 74.1 °F 85% 30.14 in 10.0 mi WSW 8.1 mph - N/A   Scattered Clouds
8:35 AM 79.7 °F - 74.3 °F 83% 30.14 in 10.0 mi WSW 5.8 mph - N/A   Mostly Cloudy
8:55 AM 80.4 °F 85.5 °F 74.5 °F 82% 30.14 in 10.0 mi WSW 4.6 mph - N/A   Scattered Clouds
9:15 AM 82.0 °F 88.9 °F 75.2 °F 80% 30.13 in 10.0 mi WSW 4.6 mph - N/A   Scattered Clouds
9:35 AM 84.0 °F 92.2 °F 75.4 °F 75% 30.13 in 10.0 mi WSW 6.9 mph - N/A   Clear
9:55 AM 85.5 °F 94.6 °F 75.4 °F 72% 30.12 in 10.0 mi West 8.1 mph - N/A   Scattered Clouds
10:55 AM 88.0 °F 98.0 °F 75.2 °F 66% 30.12 in 10.0 mi WSW 9.2 mph 16.1 mph N/A   Clear
11:35 AM 88.9 °F 99.2 °F 75.2 °F 64% 30.11 in 10.0 mi SW 8.1 mph - N/A   Scattered Clouds
12:15 PM 91.0 °F 102.2 °F 75.2 °F 60% 30.11 in 10.0 mi WSW 12.7 mph - N/A   Scattered Clouds
12:35 PM 91.8 °F 101.5 °F 74.3 °F 56% 30.10 in 10.0 mi WSW 9.2 mph - N/A   Clear
12:55 PM 92.1 °F 103.0 °F 74.8 °F 57% 30.10 in 10.0 mi SW 12.7 mph - N/A   Scattered Clouds
1:15 PM 91.9 °F 103.2 °F 75.0 °F 58% 30.09 in 10.0 mi SW 10.4 mph - N/A   Scattered Clouds
1:35 PM 92.3 °F 103.4 °F 75.0 °F 57% 30.08 in 10.0 mi West 8.1 mph - N/A   Scattered Clouds
1:55 PM 91.0 °F 100.4 °F 73.9 °F 57% 30.08 in 10.0 mi WSW 8.1 mph - N/A   Mostly Cloudy
2:15 PM 92.5 °F 101.9 °F 73.8 °F 54% 30.07 in 10.0 mi WSW 6.9 mph - N/A   Scattered Clouds
2:35 PM 90.7 °F 100.7 °F 74.5 °F 59% 30.06 in 10.0 mi SW 5.8 mph - N/A Rain Light Rain
2:55 PM 88.5 °F 99.9 °F 76.3 °F 67% 30.05 in 10.0 mi WSW 5.8 mph - N/A   Scattered Clouds
3:15 PM 88.5 °F 97.8 °F 74.3 °F 63% 30.04 in 10.0 mi WSW 3.5 mph - N/A   Clear
3:35 PM 87.3 °F 97.7 °F 75.9 °F 69% 30.03 in 10.0 mi Calm Calm - N/A   Clear
3:55 PM 86.4 °F 96.0 °F 75.7 °F 70% 30.03 in 10.0 mi SW 4.6 mph - N/A   Clear
4:15 PM 85.6 °F 93.4 °F 74.1 °F 68% 30.02 in 10.0 mi Calm Calm - N/A   Scattered Clouds
4:35 PM 84.4 °F 93.1 °F 75.6 °F 75% 30.02 in 10.0 mi Calm Calm - N/A   Scattered Clouds
4:55 PM 84.7 °F 94.4 °F 76.3 °F 76% 30.02 in 10.0 mi NNW 5.8 mph - N/A   Clear
5:15 PM 85.8 °F 94.2 °F 74.5 °F 69% 30.02 in 10.0 mi Calm Calm - N/A   Clear
5:35 PM 85.5 °F 95.0 °F 75.9 °F 73% 30.02 in 10.0 mi Calm Calm - N/A   Clear
5:55 PM 84.6 °F 93.9 °F 76.3 °F 76% 30.02 in 10.0 mi Calm Calm - N/A   Clear
6:15 PM 84.2 °F 92.3 °F 75.2 °F 74% 30.01 in 10.0 mi Calm Calm - N/A   Scattered Clouds
6:35 PM 84.0 °F 92.2 °F 75.4 °F 75% 30.01 in 10.0 mi Calm Calm - N/A Rain Rain
6:55 PM 82.9 °F 89.7 °F 74.5 °F 75% 30.01 in 10.0 mi North 5.8 mph - 0.01 in   Overcast
7:15 PM 82.0 °F 87.4 °F 73.0 °F 74% 30.00 in 10.0 mi Calm Calm - N/A   Scattered Clouds
7:35 PM 81.0 °F 85.8 °F 73.2 °F 77% 30.02 in 10.0 mi SSW 4.6 mph - N/A   Scattered Clouds
7:55 PM 80.4 °F 84.7 °F 72.5 °F 77% 30.01 in 10.0 mi Calm Calm - N/A   Mostly Cloudy
8:15 PM 79.3 °F - 70.7 °F 75% 30.04 in 10.0 mi South 6.9 mph - N/A   Scattered Clouds
8:35 PM 77.7 °F - 69.8 °F 76% 30.03 in 10.0 mi SSW 10.4 mph 18.4 mph N/A   Mostly Cloudy
8:55 PM 76.1 °F - 69.6 °F 80% 30.00 in 10.0 mi SSW 4.6 mph - N/A   Scattered Clouds
9:15 PM 75.0 °F - 69.6 °F 83% 30.01 in 10.0 mi SW 6.9 mph - N/A   Clear
9:35 PM 74.5 °F - 69.1 °F 83% 30.02 in 10.0 mi SW 5.8 mph - N/A   Clear
9:55 PM 74.5 °F - 69.4 °F 84% 30.05 in 10.0 mi SW 8.1 mph - N/A   Mostly Cloudy
10:15 PM 75.0 °F - 69.1 °F 82% 30.05 in 10.0 mi SSW 6.9 mph - N/A   Mostly Cloudy
10:35 PM 74.7 °F - 69.1 °F 83% 30.04 in 10.0 mi SW 8.1 mph - N/A   Scattered Clouds
10:55 PM 74.7 °F - 69.3 °F 83% 30.03 in 10.0 mi SW 5.8 mph - N/A   Scattered Clouds
11:15 PM 74.7 °F - 69.1 °F 83% 30.02 in 10.0 mi SSW 5.8 mph - N/A   Scattered Clouds
11:35 PM 74.5 °F - 68.9 °F 83% 30.00 in 10.0 mi SSW 3.5 mph - N/A   Clear
11:55 PM 73.9 °F - 68.9 °F 84% 30.01 in 10.0 mi Calm Calm - N/A   Clear